[[{"header":{"parameterUnit":"m.s-1","parameterCategory":1,"la1":30.2992,"la2":30.254,"lo1":-89.0895,"lo2":-89.0443,"dy":0.0025,"dx":0.0025,"nx":19,"ny":19,"refTime":"2026-05-06T03:00:00:Z","depth":0,"parameterNumber":2,"parameterNumberName":"U-component_of_WINDS"},"data":[0,0,0,3.5519,3.552,3.5548,3.5548,3.5608,3.5609,0,0,0,0,0,0,0,0,0,0,0,3.5525,3.5526,3.5519,3.552,3.5548,3.5548,3.5608,3.5609,0,0,0,0,0,0,0,0,0,0,0,3.5525,3.5526,3.5527,3.552,3.5548,3.5548,3.5608,3.5578,0,0,0,0,0,0,0,0,0,0,3.5547,3.5567,3.5526,3.5527,3.5521,3.5548,3.5548,3.5576,3.558,3.5606,0,3.5633,0,3.5622,3.5615,3.5615,0,0,0,3.5509,3.5564,3.5558,3.5527,3.5521,3.5548,3.5532,3.5578,3.5582,3.5611,3.5633,3.5635,3.5623,3.5615,3.5616,3.5799,3.5801,0,0,3.5508,3.5539,3.5555,3.5562,3.5559,3.5532,3.5534,3.558,3.5607,3.5633,3.5636,3.5624,3.5616,3.5616,3.5798,3.58,0,0,0,3.5511,3.5538,3.553,3.556,3.5563,3.5533,3.5535,3.5605,3.56,3.5636,3.5625,3.5616,3.5617,3.5797,3.5799,3.5895,0,0,0,3.5509,3.5539,3.553,3.555,3.5563,3.5584,3.5559,3.5596,3.5601,3.5624,3.5616,3.5618,3.5795,3.5798,3.5889,3.5935,0,0,0,3.5519,3.554,3.5549,3.5551,3.5564,3.5583,3.558,3.5597,3.5594,3.5615,3.5618,3.5794,3.5797,3.5884,3.5927,3.5992,0,0,0,3.5538,3.5636,3.5552,3.5656,3.5564,3.5642,3.5579,3.5636,3.5666,3.5617,3.5795,3.5798,3.5882,3.5921,3.5986,3.6052,3.6082,0,0,3.5678,3.5654,3.5713,3.5638,3.5739,3.5636,3.5751,3.5749,3.5723,3.5776,3.578,3.5891,3.5926,3.5991,3.6243,3.6267,0,0,0,3.5768,3.5811,3.5831,3.586,3.586,3.5864,3.5842,3.5841,3.5883,3.5756,3.5932,3.5952,3.5988,3.6018,3.6039,3.6067,3.5814,3.5813,3.5813,3.6011,3.5972,3.6067,3.6031,3.6061,3.6035,3.6055,3.605,3.6003,3.6045,3.606,3.6218,3.6254,3.6269,3.63,3.6092,3.6093,3.6093,3.6093,3.6213,3.6267,3.6201,3.6269,3.6228,3.6285,3.6265,3.6229,3.6276,3.6203,3.6234,3.6156,3.6297,3.6321,3.61,3.6099,3.6098,3.6097,3.6097,3.6367,3.6386,3.6383,3.6419,3.6453,3.6413,3.6461,3.6422,3.6385,3.6415,3.6426,3.6424,3.6417,3.6423,3.6424,3.6425,3.6425,3.6425,3.6426,3.6527,3.6521,3.6565,3.6574,3.6586,3.6598,3.6574,3.6586,3.6588,3.6556,3.6556,3.6504,3.6318,3.6271,3.6434,3.6433,3.6432,3.6431,3.643,3.6744,3.6689,3.6758,3.6771,3.6776,3.6811,3.676,3.6787,3.6791,3.6816,3.6758,3.6627,3.6599,3.6583,3.6544,3.6767,3.6767,3.6767,3.6767,3.6873,3.6855,3.6916,3.6939,3.6957,3.6918,3.6997,3.6979,3.6952,3.6952,3.6914,3.6859,3.6844,3.6825,3.6803,3.6766,3.7041,3.7041,3.7041,3.7004,3.6985,3.706,3.7032,3.7033,3.7035,3.7108,3.7137,3.7095,3.7052,3.6951,3.6939,3.685,3.6824,3.6777,3.6744,3.6675,0,0]},{"header":{"parameterUnit":"m.s-1","parameterCategory":1,"la1":30.2992,"la2":30.254,"lo1":-89.0895,"lo2":-89.0443,"dy":0.0025,"dx":0.0025,"nx":19,"ny":19,"refTime":"2026-05-06T03:00:00:Z","depth":0,"parameterNumber":3,"parameterNumberName":"V-component_of_WINDS"},"data":[0,0,0,4.0109,4.0113,4.0311,4.0312,4.0559,4.0562,0,0,0,0,0,0,0,0,0,0,0,4.0048,4.0049,4.0109,4.0114,4.0311,4.0312,4.0559,4.0562,0,0,0,0,0,0,0,0,0,0,0,4.0047,4.0049,4.0051,4.0115,4.0311,4.0312,4.0559,4.0411,0,0,0,0,0,0,0,0,0,0,4.022,4.0161,4.0049,4.0051,4.0116,4.0311,4.0312,4.0404,4.042,4.0468,0,4.051,0,4.054,4.0578,4.0579,0,0,0,4.0116,4.0147,4.0203,4.0051,4.0117,4.0311,4.0223,4.0413,4.0432,4.0489,4.0513,4.0522,4.0544,4.0579,4.0581,4.085,4.0851,0,0,4.0105,4.0082,4.019,4.0215,4.0185,4.0216,4.0229,4.0424,4.0449,4.0514,4.0528,4.0548,4.0581,4.0583,4.0848,4.085,0,0,0,4.0072,4.0074,4.0125,4.0205,4.0241,4.0222,4.0236,4.044,4.0459,4.0531,4.0551,4.0582,4.0585,4.0847,4.0849,4.0886,0,0,0,4.0066,4.0055,4.012,4.0108,4.0237,4.0343,4.0248,4.0445,4.0468,4.0549,4.0583,4.0588,4.0846,4.0848,4.0882,4.0907,0,0,0,4.0036,4.0052,4.0079,4.0107,4.0191,4.0341,4.0371,4.0451,4.048,4.0579,4.0588,4.0845,4.0848,4.0879,4.0902,4.0973,0,0,0,3.9997,4.0108,4.0079,4.0211,4.0189,4.0362,4.0369,4.0499,4.0588,4.0584,4.0846,4.0849,4.0878,4.0899,4.0969,4.1029,4.1051,0,0,4.0124,4.0123,4.0202,4.0182,4.0354,4.0333,4.0511,4.0613,4.0643,4.0779,4.0786,4.0883,4.0902,4.0972,4.1183,4.1201,0,0,0,4.0234,4.0291,4.0342,4.0426,4.0508,4.058,4.0658,4.0696,4.0813,4.0708,4.0928,4.0939,4.0982,4.1011,4.1027,4.1065,4.0861,4.0861,4.0861,4.0382,4.0415,4.0549,4.0606,4.0687,4.0767,4.0836,4.0901,4.0909,4.096,4.1002,4.1126,4.116,4.1172,4.1211,4.1035,4.1035,4.1035,4.1035,4.0572,4.0659,4.0668,4.0801,4.0835,4.0947,4.1028,4.103,4.1139,4.1098,4.1136,4.1089,4.119,4.1226,4.1038,4.1038,4.1037,4.1037,4.1037,4.0674,4.0721,4.0766,4.0892,4.0985,4.1038,4.1143,4.117,4.1195,4.1233,4.128,4.128,4.1284,4.1254,4.1254,4.1255,4.1255,4.1255,4.1256,4.0762,4.0811,4.0897,4.0994,4.1052,4.1132,4.1213,4.1271,4.1341,4.1352,4.1353,4.1357,4.1193,4.1153,4.1262,4.1261,4.126,4.126,4.1259,4.0945,4.0908,4.104,4.1099,4.1215,4.1306,4.1338,4.1454,4.1505,4.1556,4.1552,4.1426,4.1426,4.1414,4.1381,4.1543,4.1543,4.1543,4.1543,4.1031,4.1034,4.1176,4.1268,4.1361,4.1404,4.1552,4.1616,4.1676,4.171,4.169,4.1648,4.1634,4.1642,4.1625,4.1595,4.1808,4.1808,4.1809,4.1147,4.1159,4.1281,4.1341,4.1434,4.1512,4.1653,4.1758,4.1818,4.182,4.1738,4.1727,4.1658,4.1634,4.1635,4.1608,4.1552,0,0]}]]